Location: Buckeye Ditch
(40.9104°N, 122.9517°W)
Time: 13:04:34
(UTC+00:00)

Cosmos 2056 Rocket - Visible Passes

Search period start: 12 July 2024 00:00
Search period end: 22 July 2024 00:00
Orbit: 740 x 797 km, 74.0° (Epoch: 12 July)

Date Brightness Start Highest point End Pass type
(mag) Time Alt. Az. Time Alt. Az. Time Alt. Az.
12 Jul 5.1 08:16:48 22° E 08:16:48 22° E 08:20:26 10° NE visible
12 Jul 4.1 09:57:04 39° W 09:58:09 44° WNW 10:03:11 10° N visible
13 Jul 5.8 07:40:40 13° E 07:40:40 13° E 07:42:13 10° ENE visible
13 Jul 3.4 09:20:56 71° WSW 09:21:17 74° WNW 09:26:34 10° NNE visible
13 Jul 5.9 11:03:16 10° WNW 11:04:18 10° NW 11:05:19 10° NW visible
14 Jul 3.6 08:44:46 65° E 08:44:46 65° E 08:49:45 10° NNE visible
14 Jul 5.5 10:25:03 14° W 10:27:05 17° NW 10:30:30 10° NNW visible
15 Jul 4.5 08:08:35 36° E 08:08:35 36° E 08:12:41 10° NE visible
15 Jul 4.9 09:48:51 25° W 09:50:00 27° WNW 09:54:27 10° N visible
16 Jul 5.2 07:32:22 21° E 07:32:22 21° E 07:35:17 10° NE visible
16 Jul 4.2 09:12:38 43° WNW 09:13:02 44° WNW 09:18:03 10° N visible
17 Jul 5.8 06:56:07 12° ENE 06:56:07 12° ENE 06:57:02 10° ENE visible
17 Jul 3.6 08:36:23 73° NW 08:36:23 73° NW 08:41:26 10° NNE visible
17 Jul 6.0 10:18:10 10° WNW 10:19:10 10° NW 10:20:10 10° NW visible
18 Jul 3.8 08:00:07 58° ENE 08:00:07 58° ENE 08:04:36 10° NNE visible
18 Jul 5.5 09:40:23 15° WNW 09:41:58 17° NW 09:45:22 10° NNW visible
19 Jul 4.5 07:23:49 34° ENE 07:23:49 34° ENE 07:27:33 10° NE visible
19 Jul 4.9 09:04:05 26° WNW 09:04:53 27° WNW 09:09:19 10° N visible
20 Jul 5.2 06:47:29 20° ENE 06:47:29 20° ENE 06:50:08 10° NE visible
20 Jul 4.2 08:27:45 44° WNW 08:27:55 44° WNW 08:32:54 10° N visible
21 Jul 5.7 06:11:07 11° ENE 06:11:07 11° ENE 06:11:50 10° ENE visible
21 Jul 3.6 07:51:23 72° NW 07:51:23 72° NW 07:56:17 10° NNE visible
21 Jul 6.1 09:33:04 10° WNW 09:34:02 10° NW 09:35:00 10° NW visible
